Find Starlink 34429

NORAD ID: 64464 Int'l Des: 2025-130 Owner: SPXS Country: US Constellation: starlink operational
LEOCIRCULAR

Live Position

Loading 3D Globe...

About Starlink 34429

Description loading...

Upcoming Passes

Passes for default location (London). Set your location on the main map for personalized predictions.

Altitude History

Loading altitude history...

Two-Line Element Set

1 64464U 25130AC 26106.83089064 .00009562 00000-0 33450-3 0 9998
2 64464 53.1591 271.2954 0001496 84.7609 275.3563 15.30204606 46541
Epoch: Apr 16, 2026 • Age: 10 hours

Current Status

Altitude 480.5 km
Velocity 7.63 km/s
Sub-Earth Point 52.45°N, 54.27°E
Launch Date Jun 18, 2025
Age 0.8 years
Type internet

Technical Details

Classification Payload
Mass 575.00 kg
Dry Mass 530.00 kg
Total Mass 575.00 kg
Length 0.30 m
Diameter 4.10 m
Span 29.00 m
Shape Box + pan
Manufacturer SPXS
Bus Type Starlink V2MO
Phase Status In Orbit
Owner/State SPXS/US

Most Searched